INTELSAT 602 1 20315U 89087A 10245.22468942 +.00000030 +00000-0 +10000-3 0 01216 2 20315 007.9441 060.5686 0001060 130.0545 049.3896 01.00274451074154 LEASAT 5 1 20410U 90002B 10243.64612892 -.00000069 00000-0 10000-3 0 3619 2 20410 009.0664 032.6144 0001710 145.7541 105.9128 01.00272685 60856 INTELSAT 603 1 20523U 90021A 10243.92905374 .00000072 00000-0 00000+0 0 6707 2 20523 007.4299 062.1268 0000978 130.6744 133.1516 01.00271767 67890 INTELSAT 604 1 20667U 90056A 10242.35932866 -.00000161 00000-0 10000-3 0 8983 2 20667 007.7322 062.8065 0005917 187.6774 172.4741 00.98435302 76455 INTELSAT 605 1 21653U 91055A 10237.29970606 -.00000221 00000-0 00000+0 0 9499 2 21653 005.4997 067.8905 0000766 300.2961 059.9526 00.99328820 69617 INTELSAT 601 1 21765U 91075A 10243.08450083 .00000123 00000-0 10000-3 0 15 2 21765 005.5439 066.7759 0000483 156.1570 194.1381 01.00274019 68824 NSS K (INTELSAT K) 1 21989U 92032A 10238.83432542 -.00000158 +00000-0 +10000-3 0 04422 2 21989 007.5806 064.2743 0088668 208.6766 151.0309 00.97180763076388 INTELSAT 701 1 22871U 93066A 10245.55528138 .00000047 00000-0 10000-3 0 5770 2 22871 000.0142 101.1496 0002757 065.6256 194.7189 01.00273333 61640 INTELSAT 702 1 23124U 94034A 10242.76818563 -.00000001 +00000-0 +00000-0 0 04150 2 23124 000.0048 218.5139 0002657 303.3946 159.4644 01.00272706073528 NSS 703 (INTELSAT 703) 1 23305U 94064A 10245.88095082 .00000065 00000-0 00000+0 0 2362 2 23305 000.9717 078.2463 0003770 070.6011 207.0318 01.00274878 58361 INTELSAT 704 1 23461U 95001A 10240.11305221 .00000096 00000-0 10000-3 0 1512 2 23461 001.2054 076.0616 0002883 040.9394 320.0446 00.99178161 57234 INTELSAT 705 1 23528U 95013A 10245.17147111 -.00000218 00000-0 10000-3 0 989 2 23528 000.7470 078.7224 0002911 110.9890 183.7339 01.00271213 56519 INTELSAT 706 1 23571U 95023A 10242.61158902 -.00000058 00000-0 10000-3 0 1796 2 23571 000.0032 172.7554 0003438 340.2571 117.9624 01.00273196 55971 INTELSAT 707 1 23816U 96015A 10244.41870839 -.00000287 +00000-0 +10000-3 0 00603 2 23816 000.0145 074.5041 0003278 095.1750 268.5339 01.00271874053004 INTELSAT 709 1 23915U 96035A 10246.58370532 .00000077 00000-0 10000-3 0 2002 2 23915 000.0011 330.1358 0003209 217.2247 060.2408 01.00273740 52108 INTELSAT 801 1 24742U 97009A 10245.17105065 -.00000218 00000-0 00000+0 0 8126 2 24742 001.8129 076.6541 0002472 053.5448 243.1207 01.00271662 49507 INTELSAT 802 1 24846U 97031A 10243.86569848 .00000155 00000-0 10000-3 0 871 2 24846 000.0256 354.3625 0003227 173.6874 156.4601 01.00274501 48338 NSS 5 (INTELSAT 803) 1 24957U 97053A 10243.08287714 -.00000154 +00000-0 +00000-0 0 00305 2 24957 000.0512 271.5164 0002839 247.6763 189.8094 01.00272904047386 INTELSAT 804 1 25110U 97083A 10242.24118179 +.00000008 +00000-0 +10000-3 0 07774 2 25110 005.1693 067.6211 0003176 259.0350 101.1599 01.00228757046579 NSS 806 (INTELSAT 806) 1 25239U 98014A 10245.03026926 -.00000265 00000-0 10000-3 0 5885 2 25239 000.0482 272.5766 0002545 227.8717 171.0433 01.00271393 45893 INTELSAT 805 1 25371U 98037A 10244.35705311 -.00000287 +00000-0 +10000-3 0 05449 2 25371 000.0575 281.1142 0003075 242.4336 249.8991 01.00270701044733 INTELSAT 901 1 26824U 01024A 10245.06396332 -.00000145 00000-0 10000-3 0 6074 2 26824 000.0299 137.7815 0003142 016.0047 192.3484 01.00271969 33848 INTELSAT 902 1 26900U 01039A 10242.81013699 .00000033 00000-0 00000+0 0 6123 2 26900 000.0065 143.3987 0003047 018.4965 170.6345 01.00272208 32993 INTELSAT 904 1 27380U 02007A 10245.69448299 .00000043 00000-0 00000+0 0 6287 2 27380 000.0163 067.3948 0002575 089.2314 135.1292 01.00273021 31277 INTELSAT 903 1 27403U 02016A 10243.96819000 -.00000239 00000-0 10000-3 0 3856 2 27403 000.0119 156.8169 0005400 265.0116 232.3262 01.00271988 30914 INTELSAT 905 1 27438U 02027A 10245.05347756 -.00000188 00000-0 10000-3 0 2090 2 27438 000.0526 265.3725 0003307 269.9291 160.5453 01.00271856 30243 INTELSAT 906 1 27513U 02041A 10245.73105823 .00000008 00000-0 00000+0 0 3986 2 27513 000.0333 296.6451 0002515 227.1188 145.3495 01.00273747 29300 INTELSAT 907 1 27683U 03007A 10245.17431124 -.00000207 00000-0 10000-3 0 9490 2 27683 000.0150 254.5304 0003296 286.1942 195.7388 01.00271530 27660 INTELSAT 1002 1 28358U 04022A 10244.07960049 -.00000012 +00000-0 +10000-3 0 09291 2 28358 000.0165 154.8931 0000703 266.2426 306.7042 01.00273319022797 GALAXY 28 (IA 8) 1 28702U 05022A 10244.50325170 -.00000188 00000-0 10000-3 0 8960 2 28702 000.0078 118.2327 0001373 041.3249 273.1659 01.00271639 19065 GALAXY 14 1 28790U 05030A 10245.49744823 +.00000031 +00000-0 +10000-3 0 09737 2 28790 000.0511 285.1488 0002550 235.5095 234.9799 01.00274286018497 GALAXY 15 1 28884U 05041A 10246.34874277 -.00000009 00000-0 10000-3 0 9269 2 28884 000.4057 078.9185 0002423 074.1125 195.1312 01.00316860 17923 GALAXY 16 1 29236U 06023A 10245.16782913 -.00000131 +00000-0 +10000-3 0 08092 2 29236 000.0048 201.0858 0003056 314.7868 146.7664 01.00272352015430 GALAXY 17 1 31307U 07016B 10246.15764348 -.00000182 00000-0 10000-3 0 5542 2 31307 000.0303 345.1800 0002885 174.6964 148.0540 01.00270920 12256 INTELSAT 11 (PAS 11) 1 32253U 07044B 10244.35734278 -.00000270 +00000-0 +10000-3 0 04236 2 32253 000.0150 200.5390 0003010 321.4667 264.0501 01.00271492010695 HORIZONS 2 1 32388U 07063B 10244.29409980 -.00000254 +00000-0 +10000-3 0 04308 2 32388 000.0119 117.5273 0002044 033.4943 221.1649 01.00272400010045 GALAXY 18 1 32951U 08024A 10245.40845824 .00000020 00000-0 10000-3 0 3508 2 32951 000.0193 149.5835 0002428 344.3608 231.5275 01.00272785 8391 INTELSAT 25(PROTOSTAR 1) 1 33153U 08034A 10245.33545199 -.00000229 00000-0 10000-3 0 4321 2 33153 000.0311 043.2392 0002782 131.4926 255.9165 01.00272142 7920 INTELSAT 14 1 36097U 09064A 10244.36962289 -.00000276 00000-0 00000+0 0 1245 2 36097 000.0086 175.4246 0002143 356.5153 256.5289 01.00271769 2875 INTELSAT 15 1 36106U 09067A 10245.81062483 -.00000192 00000-0 10000-3 0 1643 2 36106 000.0106 130.4369 0002328 010.0114 218.3833 01.00271656 2775 INTELSAT 16 1 36397U 10006A 10243.36087084 -.00000285 00000-0 10000-3 0 1027 2 36397 000.0437 262.5436 0002678 274.0243 234.6673 01.00271141 2007